Flag for France Weather past 2 weeks in Auxerre, France

Now
55 °F

Clear.


Feels Like: 55 °F
Forecast: 49 / 80 °F
Wind: 2 mph from North

Location: Troyes Airport

Current Time: Sep 15, 2014 at 4:36:50 AM

Latest Report: Sep 15, 2014 at 4:00 AM


Visibility: 6 mi

Pressure: 29.98 "Hg

Humidity: 94%

Dew point: 54 °F

Location of AuxerreLocation

Historic Weather in Auxerre — Graph

°F

Auxerre temperature yesterday

Maximum temperature yesterday: 72 °F (at 3:00 PM)
Minimum temperature yesterday: 54 °F (at 4:00 AM)
Average temperature yesterday: 63 °F

Past Weeks' High & Low Weather Summary

 TemperatureHumidityPressure
High81 °F (Sep 8, 5:00 PM)100% (Sep 5, 8:00 AM)30.18 "Hg (Sep 5, 8:00 AM)
Low45 °F (Sep 11, 6:30 AM)41% (Sep 12, 4:00 PM)29.92 "Hg (Sep 5, 3:30 PM)
Average63 °F74%30.05 "Hg
* Reported Aug 31 3:00 AM — Sep 15 3:30 AM, Auxerre, Weather by CustomWeather, © 2014

Note: Actual official high and low records may vary slightly from our data, if they occured in-between our weather recording intervals... More about our weather records

Advertising

Auxerre weather history for previous 24 hours

 ConditionsComfort  
Time TempWeatherWind HumidityBarometerVisibility
3:30 AM
Sep 15
54 °FClear.1 mph94%29.98 "HgN/A
3:00 AM54 °FClear.No wind88%29.98 "Hg4 mi
2:30 AM55 °FClear.1 mph94%29.98 "HgN/A
2:00 AM54 °FClear.1 mph88%29.98 "HgN/A
1:30 AM55 °FClear.1 mph94%29.98 "HgN/A
1:00 AM55 °FClear.3 mph88%29.98 "HgN/A
12:30 AM55 °FClear.2 mph88%29.98 "HgN/A
12:00 AM57 °FClear.2 mph88%29.98 "HgN/A
11:30 PM
Sep 14
57 °FClear.5 mph88%29.98 "HgN/A
11:00 PM57 °FClear.6 mph88%29.98 "HgN/A
10:30 PM59 °FClear.6 mph82%29.98 "HgN/A
10:00 PM59 °FClear.7 mph82%29.98 "HgN/A
9:30 PM64 °FClear.5 mph73%29.98 "HgN/A
9:00 PM64 °FClear.3 mph73%29.98 "HgN/A
8:30 PM66 °FClear.6 mph68%29.98 "HgN/A
8:00 PM68 °FClear.6 mph64%29.98 "HgN/A
7:30 PM70 °FClear.7 mph60%29.98 "HgN/A
7:00 PM70 °FClear.7 mph60%30.01 "HgN/A
6:30 PM72 °FClear.8 mph57%30.01 "HgN/A
6:00 PM72 °FClear.10 mph57%30.01 "HgN/A
5:30 PM72 °FClear.9 mph57%30.01 "HgN/A
5:00 PM72 °FClear.10 mph57%30.01 "HgN/A
4:30 PM72 °FPassing clouds.10 mph57%30.01 "HgN/A
4:00 PM72 °FClear.13 mph57%30.01 "HgN/A
3:30 PM72 °FClear.10 mph57%30.04 "HgN/A
3:00 PM72 °FScattered clouds.8 mph61%30.04 "HgN/A
2:30 PM70 °FScattered clouds.12 mph60%30.04 "HgN/A
2:00 PM68 °FScattered clouds.12 mph69%30.04 "HgN/A
1:30 PM70 °FOvercast.8 mph64%30.07 "HgN/A
1:00 PM70 °FPartly sunny.10 mph64%30.07 "HgN/A
12:30 PM68 °FScattered clouds.12 mph69%30.07 "HgN/A
12:00 PM68 °FPassing clouds.10 mph69%30.07 "HgN/A
11:30 AM66 °FPassing clouds.10 mph73%30.07 "HgN/A
11:00 AM66 °FPassing clouds.9 mph73%30.09 "HgN/A
10:30 AM63 °FPassing clouds.9 mph83%30.09 "HgN/A
10:00 AM61 °FScattered clouds.3 mph88%30.09 "Hg5 mi
9:30 AM59 °FFog.5 mph88%30.09 "Hg3 mi
9:00 AM57 °FFog.6 mph94%30.09 "Hg2 mi
8:30 AM55 °FFog.7 mph94%30.09 "Hg2 mi
8:00 AM54 °FFog.6 mph94%30.09 "Hg1 mi
7:30 AM54 °FFog.8 mph94%30.09 "Hg2 mi
7:00 AM54 °FFog.8 mph94%30.09 "Hg2 mi
6:30 AM54 °FFog.8 mph94%30.09 "Hg2 mi
6:00 AM55 °FFog.5 mph94%30.09 "Hg3 mi
5:30 AM54 °FFog.7 mph100%30.09 "Hg2 mi
5:00 AM54 °FFog.6 mph94%30.09 "Hg2 mi
4:30 AM54 °FFog.8 mph94%30.12 "Hg2 mi
4:00 AM54 °FFog.8 mph94%30.12 "Hg3 mi
Weather by CustomWeather, © 2014

See weather overviewHow to use our weather pages